TITAN 3C TRANSTAGE DEB, 1680

Orbit data source: Space-Track

TITAN 3C TRANSTAGE DEB, 1680 is space debris in LEO originally from a launch on Fri, 15 Oct 1965 UTC launched from the Air Force Eastern Test Range (AFETR). Debris objects in space refer to the collection of defunct objects orbiting the Earth. Examples of debris include non-operational satellites, rocket bodies, and fragments generated from explosions, collisions, or faulty payload assembly.

Loading next visibility...
Identifier
1680, 1965-082AT
Orbit
LEO
Country
Flag of USUS
Related business
Manufacturer
Unknown
Mission
Spacecraft
Bus & Motor
Unknown
Mass
Unknown
Launch date (UTC)
1965-10-15 (60 years ago)
Launch vehicle
Unknown
Launch site
Air Force Eastern Test Range (AFETR)
Object type
Payload
Rocket body
Debris
Shape & HBR
Unknown shape, 1.2 m
Radar Cross Section
Large (>1 m²)

Expand to show TLE details & history
Last TLE update: 13 hours ago

TLE from 13 hours ago
0 TITAN 3C TRANSTAGE DEB
1  1680U 65082AT  25318.47059236  .00000947  00000-0  16478-3 0  9990
2  1680  32.2571   0.1230 0020387  92.6060 267.6922 14.65509597182136
Epoch: 2025-11-14T11:17Z
TLE epoch observation values (Epoch: 2025-11-14T11:17:39.179Z)
Latitude
-0.00004°
Longitude
136.89607°
Altitude
674.708 km
Speed
7.521 km/s
True Right ascension
00h 00m 29s
True Declination
0° 00' 00"
Sunlit
Object was in full shadow at epoch
Visualization orbit readout
Latitude
Unknown
Longitude
Unknown
Altitude
Unknown
Speed
Unknown
Apparent Right ascension
Unknown
Apparent Declination
Unknown
Sunlit
N/A
Visualization observer readout
Local Sidereal Time
21:19:34
Azimuth
Unknown
Elevation
Unknown
Doppler factor
Unknown
Orbital elements
Apogee altitude
693.409 km
Perigee altitude
664.634 km
Semi-major axis
7,057.158 km
Eccentricity
0.00204
Inclination
32.2571°
RAAN
0.123°
Arg. of periapsis
92.606°
True anomaly
267.4588°
Mean anomaly
267.6922°
Eccentric anomaly
267.5755°
Mean motion
3.66099 °/min
Orbital period
98.33 mins
BSTAR
0.00016478

Documentation

Showing up to 5 results
|